This is the latest recevied weather packets stored in our database for station/object KB4RFE. If no packets are shown the sender has not sent any weather packets the latest 10 day(s).
| Time | Temp. | Humidity | Pressure | Rain* | Wind** | Luminosity | Snow |
|---|---|---|---|---|---|---|---|
| 1777655708 | 18.33° C | 85% | 1015.7 hPa | 0.51 mm | - | 50 W/m² | - |
| 1777655405 | 18.89° C | 84% | 1015.8 hPa | 1.78 mm | - | 194 W/m² | - |
| 1777655101 | 18.89° C | 83% | 1015.8 hPa | 1.27 mm | - | 262 W/m² | - |
| 1777654799 | 18.89° C | 81% | 1016.2 hPa | 0.51 mm | - | 186 W/m² | - |
| 1777654496 | 18.89° C | 81% | 1016 hPa | 0 mm | - | 127 W/m² | - |
| 1777654194 | 18.89° C | 81% | 1016 hPa | 0 mm | - | 101 W/m² | - |
| 1777653892 | 18.89° C | 80% | 1016 hPa | 0 mm | - | 198 W/m² | - |
| 1777653588 | 18.89° C | 79% | 1016.1 hPa | 0 mm | - | 156 W/m² | - |
| 1777653284 | 19.44° C | 79% | 1016.3 hPa | 0 mm | - | 187 W/m² | - |
| 1777652981 | 19.44° C | 80% | 1016.4 hPa | 0 mm | - | 204 W/m² | - |
| 1777652677 | 19.44° C | 79% | 1016.5 hPa | 0 mm | - | 154 W/m² | - |
| 1777652375 | 19.44° C | 80% | 1016.5 hPa | 0 mm | - | 164 W/m² | - |
| 1777652072 | 19.44° C | 79% | 1016.4 hPa | 0 mm | - | 144 W/m² | - |
| 1777651768 | 19.44° C | 79% | 1016.5 hPa | 0 mm | - | 160 W/m² | - |
| 1777651465 | 19.44° C | 79% | 1016.2 hPa | 0 mm | - | 189 W/m² | - |
| 1777651163 | 20° C | 77% | 1016.2 hPa | 0 mm | - | 184 W/m² | - |
| 1777650859 | 20° C | 79% | 1016.1 hPa | 0 mm | - | 192 W/m² | - |
| 1777650556 | 20° C | 78% | 1016.4 hPa | 0 mm | - | 168 W/m² | - |
| 1777650254 | 20° C | 79% | 1016.5 hPa | 0 mm | - | 191 W/m² | - |
| 1777649950 | 20° C | 77% | 1016.4 hPa | 0 mm | - | 223 W/m² | - |
| 1777649648 | 20° C | 78% | 1016.4 hPa | 0 mm | - | 226 W/m² | - |
| 1777649343 | 20° C | 78% | 1016.6 hPa | 0 mm | - | 237 W/m² | - |
| 1777649041 | 20° C | 78% | 1016.5 hPa | 0 mm | - | 166 W/m² | - |
| 1777648738 | 20° C | 78% | 1016.4 hPa | 0 mm | - | 291 W/m² | - |
| 1777648434 | 20° C | 77% | 1016.3 hPa | 0 mm | - | 188 W/m² | - |
* Rain latest hour (hover to see other rain measurements)
** Current wind speed in m/s (hover to see current wind gust speed)